ARG1413 SAME-SABE

Flight info

Callsign ARG1413
Flight time 1h 17m
Altitude FL390
Route KAMU2C KAMUV UT670 SNT SNT9R
Aircraft B737/M-SDE2E3FGHIRWXY/LB1

Departure

Time 2026-05-04 18:43
Airport Governor Francisco Gabrielli International Airport (SAME)

Arrival

Time 2026-05-04 20:00
Airport Aeroparque Jorge Newbery (SABE)
Time Latitude Longitude Altitude Speed Heading
2026-05-04 18:01 -32.82725 -68.79777 2332 ft 0 kts 270°
2026-05-04 18:30 -32.82725 -68.79774 2333 ft 2 kts 271°
2026-05-04 18:30 -32.82725 -68.79756 2333 ft 2 kts 271°
2026-05-04 18:31 -32.82725 -68.79738 2333 ft 2 kts 271°
2026-05-04 18:31 -32.82725 -68.79727 2333 ft 2 kts 271°
2026-05-04 18:31 -32.82720 -68.79711 2332 ft 2 kts 222°
2026-05-04 18:31 -32.82709 -68.79704 2332 ft 0 kts 186°
2026-05-04 18:32 -32.82702 -68.79704 2332 ft 1 kts 179°
2026-05-04 18:32 -32.82701 -68.79704 2332 ft 0 kts 180°
2026-05-04 18:34 -32.82703 -68.79704 2332 ft 1 kts 180°
2026-05-04 18:34 -32.82725 -68.79705 2333 ft 4 kts 181°
2026-05-04 18:34 -32.82748 -68.79705 2333 ft 4 kts 181°
2026-05-04 18:34 -32.82793 -68.79707 2334 ft 7 kts 181°
2026-05-04 18:35 -32.82844 -68.79707 2335 ft 7 kts 181°
2026-05-04 18:35 -32.82901 -68.79708 2335 ft 9 kts 178°
2026-05-04 18:35 -32.82932 -68.79647 2335 ft 11 kts 94°
2026-05-04 18:35 -32.82977 -68.79574 2334 ft 12 kts 140°
2026-05-04 18:36 -32.83046 -68.79514 2335 ft 12 kts 162°
2026-05-04 18:36 -32.83122 -68.79508 2336 ft 10 kts 181°
2026-05-04 18:36 -32.83189 -68.79509 2337 ft 9 kts 181°
2026-05-04 18:36 -32.83252 -68.79510 2336 ft 9 kts 181°
2026-05-04 18:37 -32.83315 -68.79511 2336 ft 9 kts 181°
2026-05-04 18:37 -32.83377 -68.79512 2336 ft 9 kts 181°
2026-05-04 18:37 -32.83439 -68.79513 2336 ft 9 kts 181°
2026-05-04 18:37 -32.83500 -68.79514 2336 ft 9 kts 181°
2026-05-04 18:38 -32.83560 -68.79515 2336 ft 9 kts 181°
2026-05-04 18:38 -32.83620 -68.79515 2336 ft 9 kts 180°
2026-05-04 18:38 -32.83678 -68.79515 2337 ft 8 kts 181°
2026-05-04 18:38 -32.83734 -68.79516 2337 ft 8 kts 181°
2026-05-04 18:39 -32.83789 -68.79517 2337 ft 8 kts 181°
2026-05-04 18:39 -32.83844 -68.79518 2337 ft 8 kts 180°
2026-05-04 18:39 -32.83898 -68.79518 2337 ft 8 kts 180°
2026-05-04 18:39 -32.83951 -68.79518 2337 ft 8 kts 180°
2026-05-04 18:40 -32.84004 -68.79519 2337 ft 7 kts 180°
2026-05-04 18:40 -32.84052 -68.79498 2336 ft 8 kts 148°
2026-05-04 18:40 -32.84103 -68.79473 2336 ft 8 kts 162°
2026-05-04 18:40 -32.84158 -68.79453 2336 ft 9 kts 163°
2026-05-04 18:41 -32.84222 -68.79428 2335 ft 10 kts 159°
2026-05-04 18:41 -32.84287 -68.79385 2333 ft 11 kts 146°
2026-05-04 18:41 -32.84342 -68.79338 2332 ft 6 kts 123°
2026-05-04 18:41 -32.84325 -68.79305 2332 ft 5 kts 15°
2026-05-04 18:42 -32.84269 -68.79301 2333 ft 26 kts
2026-05-04 18:42 -32.83825 -68.79293 2335 ft 99 kts
2026-05-04 18:42 -32.82920 -68.79283 2334 ft 158 kts
2026-05-04 18:42 -32.81734 -68.79263 2820 ft 171 kts
2026-05-04 18:43 -32.80492 -68.79252 3307 ft 191 kts
2026-05-04 18:43 -32.79082 -68.79228 3774 ft 214 kts
2026-05-04 18:43 -32.77585 -68.79190 4509 ft 218 kts
2026-05-04 18:43 -32.76053 -68.78903 4980 ft 234 kts 25°
2026-05-04 18:44 -32.74792 -68.77640 5496 ft 249 kts 56°
2026-05-04 18:44 -32.74295 -68.76370 5864 ft 260 kts 74°
2026-05-04 18:44 -32.73947 -68.73515 6846 ft 268 kts 82°
2026-05-04 18:44 -32.73747 -68.71304 7575 ft 275 kts 82°
2026-05-04 18:45 -32.73531 -68.69035 8328 ft 281 kts 82°
2026-05-04 18:45 -32.73304 -68.66717 9057 ft 288 kts 82°
2026-05-04 18:45 -32.73073 -68.64353 9815 ft 294 kts 82°
2026-05-04 18:45 -32.73019 -68.61923 10620 ft 302 kts 94°
2026-05-04 18:46 -32.73367 -68.59406 11184 ft 319 kts 102°
2026-05-04 18:46 -32.73931 -68.56772 11667 ft 337 kts 104°
2026-05-04 18:46 -32.74552 -68.54034 12208 ft 353 kts 104°
2026-05-04 18:46 -32.75184 -68.51146 12661 ft 371 kts 104°
2026-05-04 18:47 -32.75819 -68.48118 13120 ft 388 kts 103°
2026-05-04 18:47 -32.76463 -68.44940 13618 ft 403 kts 103°
2026-05-04 18:47 -32.77110 -68.41694 14390 ft 409 kts 103°
2026-05-04 18:47 -32.77760 -68.38399 15135 ft 414 kts 103°
2026-05-04 18:48 -32.78423 -68.35026 15924 ft 421 kts 103°
2026-05-04 18:48 -32.79089 -68.31632 16718 ft 425 kts 103°
2026-05-04 18:48 -32.79759 -68.28218 17482 ft 430 kts 103°
2026-05-04 18:48 -32.80439 -68.24750 18218 ft 435 kts 103°
2026-05-04 18:49 -32.81127 -68.21240 18926 ft 440 kts 103°
2026-05-04 18:49 -32.81822 -68.17692 19570 ft 446 kts 103°
2026-05-04 18:49 -32.82526 -68.14089 20280 ft 450 kts 103°
2026-05-04 18:49 -32.83238 -68.10445 20970 ft 455 kts 103°
2026-05-04 18:50 -32.83954 -68.06770 21602 ft 460 kts 103°
2026-05-04 18:50 -32.84675 -68.03067 22242 ft 464 kts 103°
2026-05-04 18:50 -32.85401 -67.99324 22839 ft 470 kts 103°
2026-05-04 18:50 -32.86135 -67.95536 23448 ft 475 kts 103°
2026-05-04 18:51 -32.86876 -67.91702 24085 ft 478 kts 103°
2026-05-04 18:51 -32.87620 -67.87844 24662 ft 483 kts 103°
2026-05-04 18:51 -32.88377 -67.83913 25265 ft 488 kts 103°
2026-05-04 18:51 -32.89135 -67.79975 25826 ft 493 kts 103°
2026-05-04 18:52 -32.89898 -67.76001 26328 ft 498 kts 103°
2026-05-04 18:52 -32.90669 -67.71979 26894 ft 502 kts 103°
2026-05-04 18:52 -32.91446 -67.67929 27416 ft 507 kts 103°
2026-05-04 18:52 -32.92236 -67.63852 27986 ft 510 kts 103°
2026-05-04 18:53 -32.93038 -67.59739 28548 ft 513 kts 103°
2026-05-04 18:53 -32.93844 -67.55613 29380 ft 509 kts 104°
2026-05-04 18:53 -32.94641 -67.51532 30097 ft 508 kts 104°
2026-05-04 18:53 -32.95439 -67.47438 30688 ft 509 kts 104°
2026-05-04 18:54 -32.96233 -67.43355 31317 ft 509 kts 104°
2026-05-04 18:54 -32.97026 -67.39267 31923 ft 509 kts 104°
2026-05-04 18:54 -32.97817 -67.35178 32519 ft 509 kts 104°
2026-05-04 18:54 -32.98605 -67.31091 33097 ft 508 kts 103°
2026-05-04 18:55 -32.99397 -67.26970 33622 ft 508 kts 103°
2026-05-04 18:55 -33.00965 -67.18797 34731 ft 508 kts 103°
2026-05-04 18:55 -33.01746 -67.14708 35400 ft 505 kts 103°
2026-05-04 18:56 -33.02519 -67.10661 35940 ft 504 kts 104°
2026-05-04 18:56 -33.03291 -67.06610 36403 ft 505 kts 104°
2026-05-04 18:56 -33.04067 -67.02533 36814 ft 506 kts 104°
2026-05-04 18:56 -33.04848 -66.98412 37294 ft 506 kts 104°
2026-05-04 18:57 -33.05621 -66.94326 37751 ft 506 kts 104°
2026-05-04 18:57 -33.06395 -66.90234 38159 ft 507 kts 104°
2026-05-04 18:57 -33.07166 -66.86143 38533 ft 508 kts 104°
2026-05-04 18:57 -33.07938 -66.82045 38832 ft 509 kts 104°
2026-05-04 18:58 -33.09498 -66.73785 38849 ft 510 kts 104°
2026-05-04 18:58 -33.11055 -66.65535 38852 ft 509 kts 104°
2026-05-04 18:59 -33.12604 -66.57300 38844 ft 510 kts 104°
2026-05-04 18:59 -33.14142 -66.49095 38838 ft 508 kts 104°
2026-05-04 19:00 -33.15681 -66.40844 38853 ft 510 kts 104°
2026-05-04 19:00 -33.17213 -66.32600 38871 ft 510 kts 104°
2026-05-04 19:01 -33.18734 -66.24380 38887 ft 509 kts 104°
2026-05-04 19:01 -33.20253 -66.16142 38890 ft 511 kts 104°
2026-05-04 19:02 -33.21775 -66.07859 38879 ft 510 kts 104°
2026-05-04 19:02 -33.23287 -65.99604 38881 ft 510 kts 104°
2026-05-04 19:03 -33.24793 -65.91354 38871 ft 510 kts 104°
2026-05-04 19:03 -33.26303 -65.83048 38870 ft 511 kts 104°
2026-05-04 19:04 -33.27801 -65.74781 38871 ft 512 kts 104°
2026-05-04 19:04 -33.29289 -65.66520 38876 ft 511 kts 104°
2026-05-04 19:05 -33.30782 -65.58205 38880 ft 512 kts 104°
2026-05-04 19:05 -33.32268 -65.49891 38878 ft 511 kts 104°
2026-05-04 19:06 -33.33745 -65.41590 38880 ft 511 kts 104°
2026-05-04 19:06 -33.35216 -65.33297 38869 ft 512 kts 104°
2026-05-04 19:07 -33.36691 -65.24946 38857 ft 513 kts 104°
2026-05-04 19:07 -33.38154 -65.16637 38854 ft 512 kts 104°
2026-05-04 19:08 -33.39614 -65.08300 38853 ft 513 kts 104°
2026-05-04 19:08 -33.41067 -64.99967 38842 ft 513 kts 104°
2026-05-04 19:09 -33.42521 -64.91595 38837 ft 513 kts 104°
2026-05-04 19:09 -33.43960 -64.83272 38829 ft 513 kts 104°
2026-05-04 19:10 -33.45401 -64.74921 38825 ft 514 kts 104°
2026-05-04 19:10 -33.46843 -64.66520 38820 ft 516 kts 104°
2026-05-04 19:11 -33.48273 -64.58142 38820 ft 514 kts 104°
2026-05-04 19:11 -33.49682 -64.49787 38816 ft 514 kts 104°
2026-05-04 19:12 -33.51718 -64.37143 38810 ft 516 kts 104°
2026-05-04 19:13 -33.53052 -64.28733 38806 ft 515 kts 103°
2026-05-04 19:13 -33.54389 -64.20301 38806 ft 516 kts 103°
2026-05-04 19:14 -33.55726 -64.11873 38805 ft 515 kts 103°
2026-05-04 19:14 -33.57063 -64.03425 38807 ft 515 kts 103°
2026-05-04 19:15 -33.58389 -63.94992 38802 ft 516 kts 103°
2026-05-04 19:15 -33.59709 -63.86572 38803 ft 515 kts 103°
2026-05-04 19:16 -33.61027 -63.78129 38799 ft 516 kts 103°
2026-05-04 19:16 -33.62340 -63.69679 38804 ft 516 kts 103°
2026-05-04 19:17 -33.63644 -63.61239 38799 ft 516 kts 103°
2026-05-04 19:17 -33.64942 -63.52801 38801 ft 517 kts 103°
2026-05-04 19:18 -33.66237 -63.44331 38803 ft 515 kts 103°
2026-05-04 19:18 -33.67521 -63.35895 38800 ft 515 kts 103°
2026-05-04 19:19 -33.68802 -63.27450 38797 ft 516 kts 103°
2026-05-04 19:19 -33.70085 -63.18964 38798 ft 516 kts 103°
2026-05-04 19:20 -33.71355 -63.10508 38802 ft 515 kts 103°
2026-05-04 19:20 -33.72617 -63.02047 38803 ft 516 kts 103°
2026-05-04 19:21 -33.73896 -62.93590 38809 ft 515 kts 103°
2026-05-04 19:21 -33.75202 -62.85115 38808 ft 516 kts 104°
2026-05-04 19:22 -33.76502 -62.76660 38815 ft 515 kts 104°
2026-05-04 19:22 -33.77790 -62.68214 38810 ft 516 kts 103°
2026-05-04 19:23 -33.79071 -62.59746 38817 ft 514 kts 103°
2026-05-04 19:23 -33.80340 -62.51302 38817 ft 514 kts 103°
2026-05-04 19:24 -33.81595 -62.42889 38817 ft 513 kts 104°
2026-05-04 19:24 -33.82848 -62.34462 38811 ft 514 kts 103°
2026-05-04 19:25 -33.84097 -62.26011 38819 ft 512 kts 103°
2026-05-04 19:25 -33.85337 -62.17594 38824 ft 512 kts 103°
2026-05-04 19:26 -33.86571 -62.09170 38826 ft 512 kts 103°
2026-05-04 19:26 -33.87798 -62.00734 38824 ft 511 kts 103°
2026-05-04 19:27 -33.89017 -61.92326 38830 ft 512 kts 103°
2026-05-04 19:27 -33.90230 -61.83920 38831 ft 511 kts 103°
2026-05-04 19:28 -33.91439 -61.75504 38816 ft 511 kts 103°
2026-05-04 19:28 -33.92646 -61.67048 38820 ft 511 kts 103°
2026-05-04 19:29 -33.93844 -61.58626 38822 ft 512 kts 103°
2026-05-04 19:29 -33.95033 -61.50194 38819 ft 512 kts 103°
2026-05-04 19:30 -33.96221 -61.41737 38836 ft 511 kts 103°
2026-05-04 19:30 -33.97397 -61.33317 38832 ft 512 kts 103°
2026-05-04 19:31 -33.98570 -61.24877 38851 ft 511 kts 102°
2026-05-04 19:31 -33.99737 -61.16438 38851 ft 512 kts 103°
2026-05-04 19:32 -34.00901 -61.07964 38851 ft 511 kts 103°
2026-05-04 19:32 -34.02049 -60.99553 38842 ft 511 kts 103°
2026-05-04 19:33 -34.03198 -60.91118 38836 ft 510 kts 103°
2026-05-04 19:33 -34.04339 -60.82692 38819 ft 509 kts 103°
2026-05-04 19:33 -34.04908 -60.78480 38554 ft 510 kts 103°
2026-05-04 19:34 -34.05473 -60.74278 38240 ft 507 kts 103°
2026-05-04 19:34 -34.06031 -60.70112 37930 ft 504 kts 103°
2026-05-04 19:34 -34.06587 -60.65951 37620 ft 505 kts 103°
2026-05-04 19:34 -34.07144 -60.61785 37311 ft 507 kts 103°
2026-05-04 19:35 -34.07704 -60.57589 37000 ft 507 kts 103°
2026-05-04 19:35 -34.08263 -60.53377 36690 ft 507 kts 103°
2026-05-04 19:35 -34.08824 -60.49152 36290 ft 516 kts 103°
2026-05-04 19:35 -34.09391 -60.44876 35694 ft 520 kts 103°
2026-05-04 19:36 -34.09954 -60.40597 35005 ft 518 kts 103°
2026-05-04 19:36 -34.10512 -60.36330 34288 ft 516 kts 103°
2026-05-04 19:36 -34.11067 -60.32072 33560 ft 514 kts 102°
2026-05-04 19:36 -34.11616 -60.27844 33011 ft 509 kts 102°
2026-05-04 19:37 -34.12161 -60.23634 32487 ft 504 kts 102°
2026-05-04 19:37 -34.12697 -60.19486 31925 ft 499 kts 102°
2026-05-04 19:37 -34.13226 -60.15389 31363 ft 495 kts 102°
2026-05-04 19:37 -34.13750 -60.11325 30800 ft 490 kts 102°
2026-05-04 19:38 -34.14270 -60.07283 30235 ft 486 kts 102°
2026-05-04 19:38 -34.14784 -60.03282 29677 ft 482 kts 102°
2026-05-04 19:38 -34.15291 -59.99320 29118 ft 478 kts 102°
2026-05-04 19:38 -34.15798 -59.95354 28561 ft 473 kts 102°
2026-05-04 19:39 -34.16294 -59.91462 28013 ft 469 kts 102°
2026-05-04 19:39 -34.16785 -59.87604 27467 ft 465 kts 102°
2026-05-04 19:39 -34.17269 -59.83780 26927 ft 461 kts 102°
2026-05-04 19:39 -34.17749 -59.79985 26387 ft 457 kts 102°
2026-05-04 19:40 -34.18223 -59.76224 25852 ft 453 kts 102°
2026-05-04 19:40 -34.18692 -59.72499 25326 ft 449 kts 102°
2026-05-04 19:40 -34.19161 -59.68762 24787 ft 446 kts 102°
2026-05-04 19:40 -34.19621 -59.65095 24263 ft 442 kts 102°
2026-05-04 19:41 -34.20077 -59.61444 23742 ft 439 kts 103°
2026-05-04 19:41 -34.20525 -59.57841 23219 ft 435 kts 102°
2026-05-04 19:41 -34.20971 -59.54249 22707 ft 432 kts 102°
2026-05-04 19:41 -34.21415 -59.50672 22191 ft 429 kts 102°
2026-05-04 19:42 -34.21924 -59.47148 21677 ft 424 kts 107°
2026-05-04 19:42 -34.22725 -59.43738 21162 ft 416 kts 116°
2026-05-04 19:42 -34.23950 -59.40604 20646 ft 408 kts 124°
2026-05-04 19:42 -34.25372 -59.37687 20140 ft 403 kts 128°
2026-05-04 19:43 -34.26873 -59.34863 19639 ft 399 kts 129°
2026-05-04 19:43 -34.28393 -59.32080 19120 ft 396 kts 129°
2026-05-04 19:43 -34.29899 -59.29328 18618 ft 392 kts 129°
2026-05-04 19:43 -34.31391 -59.26591 18119 ft 389 kts 129°
2026-05-04 19:44 -34.32869 -59.23855 17625 ft 386 kts 128°
2026-05-04 19:44 -34.34316 -59.21148 17134 ft 383 kts 128°
2026-05-04 19:44 -34.35745 -59.18451 16643 ft 380 kts 127°
2026-05-04 19:44 -34.37160 -59.15763 16142 ft 378 kts 127°
2026-05-04 19:45 -34.38557 -59.13099 15652 ft 375 kts 127°
2026-05-04 19:45 -34.39944 -59.10449 15158 ft 373 kts 127°
2026-05-04 19:45 -34.41319 -59.07818 14671 ft 370 kts 126°
2026-05-04 19:45 -34.42696 -59.05182 14196 ft 368 kts 126°
2026-05-04 19:46 -34.44058 -59.02572 13685 ft 366 kts 126°
2026-05-04 19:46 -34.45411 -58.99980 13193 ft 364 kts 126°
2026-05-04 19:46 -34.46749 -58.97412 12675 ft 360 kts 125°
2026-05-04 19:46 -34.48073 -58.94867 12245 ft 356 kts 125°
2026-05-04 19:47 -34.49384 -58.92347 11785 ft 354 kts 125°
2026-05-04 19:47 -34.50689 -58.89841 11304 ft 352 kts 125°
2026-05-04 19:47 -34.51993 -58.87333 10835 ft 349 kts 125°
2026-05-04 19:47 -34.53278 -58.84861 10365 ft 347 kts 124°
2026-05-04 19:48 -34.54541 -58.82427 10073 ft 338 kts 124°
2026-05-04 19:48 -34.55756 -58.80060 9963 ft 324 kts 122°
2026-05-04 19:48 -34.56742 -58.77633 9663 ft 320 kts 114°
2026-05-04 19:48 -34.57504 -58.75120 9237 ft 317 kts 109°
2026-05-04 19:49 -34.58164 -58.72619 8868 ft 309 kts 108°
2026-05-04 19:49 -34.58800 -58.70150 8498 ft 303 kts 108°
2026-05-04 19:49 -34.59431 -58.67751 8140 ft 297 kts 108°
2026-05-04 19:49 -34.60064 -58.65404 7794 ft 291 kts 108°
2026-05-04 19:50 -34.60694 -58.63109 7451 ft 285 kts 108°
2026-05-04 19:50 -34.61315 -58.60851 7102 ft 281 kts 108°
2026-05-04 19:50 -34.61916 -58.58625 6752 ft 277 kts 107°
2026-05-04 19:50 -34.62500 -58.56431 6427 ft 272 kts 107°
2026-05-04 19:51 -34.63078 -58.54253 6110 ft 268 kts 107°
2026-05-04 19:51 -34.63643 -58.52123 5790 ft 264 kts 107°
2026-05-04 19:51 -34.64201 -58.50026 5478 ft 261 kts 107°
2026-05-04 19:51 -34.64755 -58.47941 5173 ft 260 kts 106°
2026-05-04 19:52 -34.65309 -58.45859 4852 ft 260 kts 106°
2026-05-04 19:52 -34.65858 -58.43791 4545 ft 257 kts 106°
2026-05-04 19:52 -34.66399 -58.41754 4242 ft 253 kts 106°
2026-05-04 19:52 -34.66939 -58.39720 3939 ft 250 kts 106°
2026-05-04 19:53 -34.67466 -58.37733 3654 ft 246 kts 106°
2026-05-04 19:53 -34.67982 -58.35787 3436 ft 240 kts 106°
2026-05-04 19:53 -34.68482 -58.33902 3301 ft 229 kts 105°
2026-05-04 19:53 -34.68953 -58.32124 3244 ft 216 kts 105°
2026-05-04 19:54 -34.69406 -58.30407 3184 ft 209 kts 105°
2026-05-04 19:54 -34.69831 -58.28758 3116 ft 202 kts 102°
2026-05-04 19:54 -34.69965 -58.27069 3049 ft 198 kts 76°
2026-05-04 19:54 -34.69422 -58.25587 2976 ft 192 kts 47°
2026-05-04 19:55 -34.68497 -58.24458 2820 ft 187 kts 32°
2026-05-04 19:55 -34.67349 -58.23838 2634 ft 178 kts
2026-05-04 19:55 -34.66123 -58.23813 2486 ft 175 kts 349°
2026-05-04 19:55 -34.65053 -58.24460 2389 ft 175 kts 320°
2026-05-04 19:56 -34.64092 -58.25362 2277 ft 174 kts 328°
2026-05-04 19:56 -34.63053 -58.26135 2196 ft 176 kts 319°
2026-05-04 19:56 -34.62413 -58.27383 2099 ft 177 kts 292°
2026-05-04 19:56 -34.62030 -58.28798 2047 ft 177 kts 289°
2026-05-04 19:57 -34.61689 -58.30240 1930 ft 179 kts 289°
2026-05-04 19:57 -34.61179 -58.31549 1749 ft 164 kts 306°
2026-05-04 19:57 -34.60519 -58.32613 1653 ft 154 kts 310°
2026-05-04 19:57 -34.59841 -58.33572 1649 ft 141 kts 314°
2026-05-04 19:58 -34.59242 -58.34453 1550 ft 129 kts 304°
2026-05-04 19:58 -34.58915 -58.35483 1265 ft 135 kts 289°
2026-05-04 19:58 -34.58628 -58.36542 1038 ft 131 kts 294°
2026-05-04 19:58 -34.58206 -58.37513 758 ft 129 kts 304°
2026-05-04 19:59 -34.57708 -58.38374 594 ft 123 kts 307°
2026-05-04 19:59 -34.57236 -58.39220 431 ft 121 kts 304°
2026-05-04 19:59 -34.56765 -58.40079 200 ft 125 kts 305°
2026-05-04 19:59 -34.56266 -58.40953 29 ft 126 kts 304°
2026-05-04 20:00 -34.55885 -58.41639 17 ft 62 kts 303°
2026-05-04 20:00 -34.55730 -58.41924 13 ft 9 kts 308°
2026-05-04 20:00 -34.55716 -58.41934 13 ft 2 kts 346°
2026-05-04 20:00 -34.55696 -58.41927 13 ft 4 kts 38°
2026-05-04 20:01 -34.55677 -58.41902 13 ft 4 kts 58°
2026-05-04 20:01 -34.55671 -58.41866 13 ft 5 kts 100°
2026-05-04 20:01 -34.55690 -58.41828 13 ft 6 kts 126°
2026-05-04 20:01 -34.55717 -58.41785 14 ft 7 kts 124°
2026-05-04 20:02 -34.55743 -58.41728 14 ft 8 kts 117°
2026-05-04 20:02 -34.55772 -58.41660 15 ft 10 kts 117°
2026-05-04 20:02 -34.55802 -58.41589 15 ft 9 kts 117°
2026-05-04 20:02 -34.55830 -58.41525 15 ft 8 kts 117°
2026-05-04 20:03 -34.55854 -58.41469 16 ft 7 kts 117°
2026-05-04 20:03 -34.55875 -58.41418 16 ft 6 kts 114°
2026-05-04 20:03 -34.55891 -58.41374 17 ft 5 kts 115°
2026-05-04 20:03 -34.55904 -58.41335 17 ft 5 kts 100°
2026-05-04 20:04 -34.55892 -58.41298 17 ft 6 kts 33°
2026-05-04 20:04 -34.55852 -58.41278 16 ft 7 kts 349°
2026-05-04 20:04 -34.55813 -58.41324 15 ft 8 kts 303°
2026-05-04 20:04 -34.55782 -58.41381 15 ft 8 kts 302°
2026-05-04 20:05 -34.55760 -58.41418 15 ft 3 kts 326°
2026-05-04 20:05 -34.55736 -58.41413 15 ft 5 kts 25°
2026-05-04 20:05 -34.55717 -58.41400 14 ft 0 kts 29°